Regional Weather Roundup
Issued by NWS State College, PA

Home | Current Version | Previous Version | Graphics & Text | Print | Product List | Glossary On
Versions: 1 2 3 4 5 6 7 8 9 10 11 12 13 14 15 16 17 18 19 20 21 22 23 24 25 26 27 28 29 30 31 32 33 34 35 36 37 38 39 40 41 42 43 44 45 46 47 48 49 50
000
ASUS41 KCTP 260703
RWRCTP

REGIONAL WEATHER ROUNDUP
NATIONAL WEATHER SERVICE STATE COLLEGE PA
300 AM EDT THU APR 26 2018

Note: "fair" indicates few or no clouds below 12,000 feet with no
significant weather and/or obstructions to visibility.

* = STATION THAT DOES NOT REPORT PRECIPITATION /E.G. RAIN...SNOW...ETC/
    THUNDER OR FOG.

PAZ002>004-007>009-013>016-020>023-029>032-260800-
WESTERN PENNSYLVANIA

CITY           SKY/WX    TMP DP  RH WIND       PRES   REMARKS
ERIE           CLOUDY    39  34  82 W10       29.87F
MEADVILLE      CLOUDY    35  34  96 W7        29.86F
FRANKLIN*      CLOUDY    35  33  92 NW8G17    29.85F
NEW CASTLE     CLOUDY    39  35  86 NW7       29.90F
BEAVER COUNTY  NOT AVBL
BUTLER*        CLOUDY    40  35  83 NW6       29.88S
PITTSBURGH INT MOCLDY    40  37  89 NW9       29.88S
PITTSBURGH     FAIR      39  37  92 NW7       29.86F
INDIANA*       CLOUDY    41  37  87 NW8G15    29.88S
LATROBE        CLOUDY    41  39  93 W5        29.88S
WASHINGTON CO* FAIR      38  36  92 W5        29.91F
$$

PAZ004>006-010>012-017>019-024>028-033>037-041-042-045-046-049>053-260800-
CENTRAL PENNSYLVANIA

CITY           SKY/WX    TMP DP  RH WIND       PRES   REMARKS
BRADFORD       CLOUDY    37  34  89 W15G23    29.76F
DUBOIS         CLOUDY    39  35  86 W13       29.79F
CLEARFIELD     CLOUDY    42  36  79 W7        29.79F
JOHNSTOWN      CLOUDY    40  35  83 W10       29.80S
ALTOONA        FAIR      45  35  68 W12       29.81S
STATE COLLEGE  CLOUDY    44  37  74 W9        29.78S
WILLIAMSPORT   FAIR      48  37  65 NW13      29.72F
SELINSGROVE    FAIR      47  37  68 NW9       29.74F
FT INDIANTOWN  FAIR      49  38  64 W8        29.72R
CAPITAL CITY   FAIR      50  38  63 W9        29.75R
HARRISBURG     FAIR      50  39  66 NW18G24   29.73S
YORK           FAIR      49  38  65 W10G22    29.75R
$$

PAZ038>040-043-044-047-048-054-055-060>062-067>071-260800-
EASTERN PENNSYLVANIA

CITY           SKY/WX    TMP DP  RH WIND       PRES   REMARKS
SCRANTON       CLOUDY    52  48  86 NW8       29.67S
MOUNT POCONO   CLOUDY    48  47  96 NW15      29.64F
ALLENTOWN      CLOUDY    58  49  72 W6        29.65F
QUAKERTOWN*    CLOUDY    57  52  82 VRB6G13   29.66S
READING        FAIR      54  48  80 NW13      29.68S
LANCASTER      FAIR      51  41  68 NW17      29.71R
COATESVILLE    FAIR      54  48  82 NW14G22   29.69S
POTTSTOWN      FAIR      55  51  86 NW9       29.67F
BLUE BELL      FAIR      55  52  88 W7        29.67S
DOYLESTOWN     CLOUDY    57  53  86 W10       29.63F
WILLOW GROVE   NOT AVBL
NORTH PHILA    MOCLDY    61  54  77 NW9       29.65S
PHILADELPHIA   MOCLDY    60  51  72 NW12      29.66S
$$




USA.gov is the U.S. government's official web portal to all federal, state and local government web resources and services.